Tracking 18633 objects as of 23-April-2017
HD Live streaming from Space Station
objects crossing your sky now

COSMOS 2251 DEB

Track COSMOS 2251 DEB now!
10-day predictions


NORAD ID: 37120
Int'l Code: 1993-036BGS
Perigee: 733.8 km
Apogee: 811.6 km
Inclination: 74.0 °
Period: 100.1 minutes
Semi major axis: 7143 km
RCS: 0.0125 m2 (small)
Launch date: June 16, 1993
Source: Commonwealth of Independent States (former USSR) (CIS)
Launch site: PLESETSK MISSILE AND SPACE COMPLEX (PKMTR)

Note: This is SATELLITE DEBRIS
Your satellite tracking list
Your tracking list is empty





NASA's NSSDC Master Catalog

Two Line Element Set (TLE):
1 37120U 93036BGS 17099.43749671 +.00001431 +00000-0 +47466-3 0  9990
2 37120 074.0175 009.8271 0054470 110.8395 249.8604 14.37873521379039
Source of the keplerian elements: AFSPC